Find Starlink 4681

NORAD ID: 53594 Int'l Des: 2022-104 Owner: SPXS Country: US Constellation: starlink decayed
LEOCIRCULAR

Re-entered — Jul 2, 2026

正在加载3D地球...

About Starlink 4681

Starlink 4681 (NORAD 53594) is a starlink constellation satellite (v1.5) launched Aug 28, 2022 by SPXS of US. It re-entered the atmosphere on Jul 2, 2026. with a mass of 300.00 kg.

高度历史

Loading altitude history...

两行轨道根数

1 53594U 22104G 26183.82197302 .10212467 12579-4 21336-3 0 9996
2 53594 53.2009 44.5146 0008853 292.8077 67.2039 16.46239423214060
Epoch: Jul 2, 2026 • Age: 1284 hours

当前状态

Position data unavailable
发射日期 Aug 28, 2022
运行时间 3.9 years
衰减日期 Jul 2, 2026
类型 internet

技术详情

分类 Payload
质量 300.00 kg
干质量 290.00 kg
总质量 300.00 kg
长度 0.20 m
直径 2.80 m
跨度 9.00 m
形状 Box + pan
制造商 SPXS
平台类型 Starlink
阶段状态 Unknown Transfer Status
所有者/国家 SPXS/US

Most Searched